Texarkana, AR

4:30 AM CDT on April 29, 2017 (GMT -0500)
Texarkana Regional-Webb

Weather History for KTXK - March, 2013

Change the Weather History Date:

Friday, March 1, 2013

  Actual Average Record
Temperature  
Mean Temperature 43 °F 52 °F  
Max Temperature 53 °F 63 °F 85 °F (1921)
Min Temperature 32 °F 41 °F 23 °F (1968)
Degree Days  
Heating Degree Days 22 13  
Month to date heating degree days 22 13  
Since 1 July heating degree days 1968 2207  
Cooling Degree Days 0 0  
Month to date cooling degree days 0 0  
Year to date cooling degree days 4 4  
Moisture  
Dew Point 26 °F    
Average Humidity 58    
Maximum Humidity 85    
Minimum Humidity 30    
Precipitation  
Precipitation 0.00 in 0.14 in 1.86 in (1948)
Month to date precipitation 0.00 0.14  
Year to date precipitation 5.45 7.53  
Snow  
Snow 0.00 in - - ()
Month to date snowfall 0.0  
Since 1 July snowfall 2.1  
Snow Depth 0.00 in    
Sea Level Pressure  
Sea Level Pressure 30.20 in    
Wind  
Wind Speed 8 mph (NNW)    
Max Wind Speed 18 mph    
Max Gust Speed 25 mph    
Visibility 9 miles    
Events      
T = Trace of Precipitation, MM = Missing Value Source: NWS Daily Summary

Daily Weather History Graph

Daily Weather History Graph

Search for Another Location

Airport or City:

Trip Planner

Search our weather history database for the weather conditions in past years. The results will help you decide how hot, cold, wet, or windy it might be!

Date:

Astronomy

Mar. 01, 2013 Rise Set
Actual Time 6:43 AM CST 6:12 PM CST
Civil Twilight 6:18 AM CST 6:37 PM CST
Nautical Twilight 5:50 AM CST 7:06 PM CST
Astronomical Twilight 5:21 AM CST 7:35 PM CST
Moon 10:30 PM CST (3/1) 8:45 AM CST (3/1)
Length of Visible Light 12h 18m
Length of Day
11h 29m
Waning Gibbous, 83% of the Moon is Illuminated
Mar 1
Waning Gibbous
Mar 4
Last Quarter
Mar 11
New
Mar 19
First Quarter
Mar 27
Full

Hourly Weather History & Observations

Time (CST) Temp. Windchill Dew Point Humidity Pressure Visibility Wind Dir Wind Speed Gust Speed Precip Events Conditions
12:53 AM 39.0 °F 34.8 °F 30.0 °F 70% 30.19 in 10.0 mi NNW 5.8 mph - N/A   Clear
1:53 AM 37.0 °F 33.3 °F 30.0 °F 76% 30.19 in 10.0 mi NNW 4.6 mph - N/A   Clear
2:53 AM 36.0 °F - 28.9 °F 76% 30.17 in 10.0 mi Calm Calm - N/A   Clear
3:53 AM 34.0 °F - 28.0 °F 79% 30.17 in 10.0 mi Calm Calm - N/A   Clear
4:53 AM 33.1 °F 28.7 °F 28.0 °F 82% 30.18 in 10.0 mi NW 4.6 mph - N/A   Clear
6:53 AM 32.0 °F 25.6 °F 28.0 °F 85% 30.20 in 7.0 mi NW 6.9 mph - N/A   Clear
8:53 AM 37.9 °F 31.5 °F 30.0 °F 73% 30.24 in 8.0 mi NNW 9.2 mph - N/A   Clear
9:53 AM 39.9 °F 33.9 °F 26.1 °F 58% 30.24 in 10.0 mi NNE 9.2 mph - N/A   Partly Cloudy
10:53 AM 43.0 °F 36.4 °F 28.0 °F 56% 30.25 in 10.0 mi NW 12.7 mph 16.1 mph N/A   Partly Cloudy
11:53 AM 44.1 °F 39.5 °F 28.0 °F 53% 30.23 in 10.0 mi WNW 8.1 mph - N/A   Clear
12:53 PM 46.9 °F - 28.0 °F 48% 30.20 in 10.0 mi NW 11.5 mph 18.4 mph N/A   Clear
1:53 PM 50.0 °F - 28.0 °F 43% 30.17 in 2.5 mi West 12.7 mph 17.3 mph N/A   Haze
2:53 PM 52.0 °F - 25.0 °F 35% 30.14 in 10.0 mi NNW 10.4 mph 17.3 mph N/A   Partly Cloudy
3:53 PM 52.0 °F - 21.0 °F 30% 30.14 in 10.0 mi NW 16.1 mph 24.2 mph N/A   Partly Cloudy
4:53 PM 48.9 °F - 24.1 °F 38% 30.14 in 10.0 mi NNW 8.1 mph - N/A   Scattered Clouds
5:53 PM 48.9 °F - 24.1 °F 38% 30.15 in 10.0 mi NW 10.4 mph - N/A   Mostly Cloudy
6:53 PM 46.0 °F 42.5 °F 24.1 °F 42% 30.17 in 10.0 mi NW 6.9 mph - N/A   Clear
7:53 PM 44.1 °F 40.1 °F 26.1 °F 49% 30.19 in 10.0 mi NNE 6.9 mph - N/A   Scattered Clouds
8:53 PM 41.0 °F 35.8 °F 26.1 °F 55% 30.21 in 10.0 mi North 8.1 mph - N/A   Clear
9:53 PM 39.0 °F 31.4 °F 25.0 °F 57% 30.24 in 10.0 mi North 12.7 mph - N/A   Overcast
10:53 PM 37.0 °F 28.9 °F 23.0 °F 57% 30.25 in 10.0 mi North 12.7 mph 17.3 mph N/A   Mostly Cloudy
11:53 PM 35.1 °F 29.3 °F 21.0 °F 57% 30.26 in 10.0 mi North 6.9 mph - N/A   Clear